TimeCST,TemperatureF,Dew PointF,Humidity,Sea Level PressureIn,VisibilityMPH,Wind Direction,Wind SpeedMPH,Gust SpeedMPH,PrecipitationIn,Events,Conditions,WindDirDegrees,DateUTC
12:15 AM,68.0,63.0,84,29.95,10.0,ESE,3.5,-,N/A,,Overcast,120,2013-02-06 06:15:00
12:35 AM,68.5,63.9,85,29.95,5.0,East,4.6,-,N/A,,Overcast,80,2013-02-06 06:35:00
12:55 AM,68.9,64.8,87,29.95,3.0,East,4.6,-,N/A,,Overcast,100,2013-02-06 06:55:00
1:15 AM,68.9,64.9,87,29.94,4.0,East,6.9,-,N/A,,Overcast,90,2013-02-06 07:15:00
1:35 AM,68.9,64.9,87,29.94,3.0,East,6.9,-,N/A,,Overcast,90,2013-02-06 07:35:00
2:15 AM,68.2,64.4,88,29.92,4.0,East,8.1,-,N/A,,Overcast,100,2013-02-06 08:15:00
2:35 AM,68.2,64.4,88,29.93,4.0,East,9.2,-,N/A,,Overcast,100,2013-02-06 08:35:00
2:55 AM,68.2,64.4,88,29.92,4.0,ESE,8.1,-,N/A,,Overcast,110,2013-02-06 08:55:00
3:15 AM,68.2,64.6,88,29.92,3.0,ESE,8.1,-,N/A,,Overcast,120,2013-02-06 09:15:00
3:35 AM,68.4,64.8,88,29.93,3.0,East,6.9,-,N/A,,Overcast,100,2013-02-06 09:35:00
3:55 AM,68.4,64.8,88,29.94,3.0,East,6.9,-,N/A,,Overcast,100,2013-02-06 09:55:00
4:15 AM,68.5,64.9,88,29.94,3.0,East,6.9,-,N/A,,Overcast,90,2013-02-06 10:15:00
4:35 AM,68.5,64.9,88,29.94,3.0,East,6.9,-,N/A,,Overcast,90,2013-02-06 10:35:00
4:55 AM,68.5,64.9,88,29.93,3.0,East,8.1,-,N/A,,Overcast,80,2013-02-06 10:55:00
5:15 AM,68.5,64.9,88,29.92,2.5,East,9.2,-,N/A,,Overcast,80,2013-02-06 11:15:00
5:35 AM,68.5,64.9,88,29.92,2.5,East,9.2,-,N/A,,Overcast,90,2013-02-06 11:35:00
5:55 AM,68.5,65.3,89,29.93,2.5,East,8.1,-,N/A,,Overcast,100,2013-02-06 11:55:00
6:15 AM,68.5,65.3,89,29.93,3.0,ESE,6.9,-,N/A,,Overcast,120,2013-02-06 12:15:00
6:35 AM,68.5,65.3,89,29.93,3.0,ESE,5.8,-,N/A,,Overcast,120,2013-02-06 12:35:00
6:55 AM,68.9,65.3,88,29.93,3.0,ESE,5.8,-,N/A,,Overcast,110,2013-02-06 12:55:00
7:35 AM,68.9,65.3,88,29.94,2.5,SE,3.5,-,N/A,,Overcast,140,2013-02-06 13:35:00
7:55 AM,68.9,65.3,88,29.94,2.5,ESE,6.9,-,N/A,,Overcast,110,2013-02-06 13:55:00
8:15 AM,68.9,65.5,89,29.93,1.8,East,5.8,-,N/A,,Overcast,100,2013-02-06 14:15:00
8:55 AM,68.9,65.5,89,29.93,3.0,East,8.1,-,N/A,,Mostly Cloudy,100,2013-02-06 14:55:00
9:15 AM,69.1,65.7,89,29.94,4.0,ESE,5.8,-,N/A,,Overcast,110,2013-02-06 15:15:00
9:35 AM,69.4,65.7,88,29.95,7.0,East,5.8,-,0.01,,Overcast,100,2013-02-06 15:35:00
9:55 AM,70.0,65.7,86,29.95,7.0,East,6.9,-,0.01,,Overcast,100,2013-02-06 15:55:00
10:15 AM,70.7,65.5,83,29.94,7.0,ESE,5.8,-,N/A,,Overcast,110,2013-02-06 16:15:00
10:35 AM,70.9,65.5,83,29.94,5.0,ESE,8.1,-,N/A,,Haze,120,2013-02-06 16:35:00
10:55 AM,71.8,65.7,81,29.93,7.0,ESE,8.1,-,N/A,,Overcast,120,2013-02-06 16:55:00
11:15 AM,72.7,65.3,78,29.92,7.0,SE,5.8,-,N/A,,Overcast,130,2013-02-06 17:15:00
11:35 AM,73.2,65.3,76,29.91,7.0,SE,4.6,-,N/A,,Overcast,130,2013-02-06 17:35:00
11:55 AM,74.5,65.1,72,29.90,10.0,ESE,10.4,-,N/A,,Overcast,120,2013-02-06 17:55:00
12:15 PM,76.6,64.6,66,29.88,10.0,East,10.4,-,N/A,,Mostly Cloudy,100,2013-02-06 18:15:00
12:35 PM,76.6,64.0,65,29.87,10.0,ENE,12.7,18.4,N/A,Rain,Light Rain,70,2013-02-06 18:35:00
12:55 PM,70.7,62.8,76,29.89,10.0,North,12.7,25.3,N/A,,Overcast,350,2013-02-06 18:55:00
1:15 PM,68.7,62.4,80,29.88,10.0,NNE,11.5,-,N/A,,Overcast,20,2013-02-06 19:15:00
1:35 PM,69.6,62.4,78,29.86,10.0,North,11.5,-,N/A,,Mostly Cloudy,10,2013-02-06 19:35:00
1:55 PM,69.8,62.1,76,29.86,10.0,NE,12.7,-,N/A,,Mostly Cloudy,40,2013-02-06 19:55:00
2:15 PM,70.2,61.7,74,29.85,10.0,NE,10.4,-,N/A,,Mostly Cloudy,40,2013-02-06 20:15:00
2:35 PM,70.9,62.2,74,29.84,10.0,NE,10.4,-,N/A,,Scattered Clouds,50,2013-02-06 20:35:00
2:55 PM,71.8,62.6,73,29.83,10.0,NE,10.4,-,N/A,,Clear,50,2013-02-06 20:55:00
3:15 PM,72.5,62.6,71,29.82,10.0,NE,11.5,-,N/A,,Clear,50,2013-02-06 21:15:00
3:35 PM,73.4,62.6,69,29.82,10.0,NE,9.2,-,N/A,,Clear,40,2013-02-06 21:35:00
3:55 PM,73.9,62.6,68,29.81,10.0,NNE,9.2,-,N/A,,Clear,20,2013-02-06 21:55:00
4:15 PM,74.8,62.6,66,29.81,10.0,NE,9.2,-,N/A,,Scattered Clouds,40,2013-02-06 22:15:00
4:35 PM,75.4,62.4,64,29.82,10.0,NE,10.4,-,N/A,,Mostly Cloudy,40,2013-02-06 22:35:00
4:55 PM,75.0,62.1,64,29.83,10.0,NE,11.5,-,N/A,,Overcast,40,2013-02-06 22:55:00
5:15 PM,74.7,62.1,65,29.83,10.0,ENE,12.7,-,N/A,,Mostly Cloudy,60,2013-02-06 23:15:00
5:35 PM,73.4,61.9,67,29.84,10.0,ENE,10.4,-,N/A,,Overcast,60,2013-02-06 23:35:00
5:55 PM,72.1,61.5,69,29.85,10.0,ENE,13.8,-,N/A,,Overcast,60,2013-02-06 23:55:00
6:15 PM,71.1,61.5,72,29.85,10.0,ENE,13.8,-,N/A,,Overcast,60,2013-02-07 00:15:00
6:35 PM,70.0,61.2,73,29.85,10.0,ENE,16.1,-,N/A,,Overcast,60,2013-02-07 00:35:00
6:55 PM,68.9,60.4,74,29.86,10.0,ENE,15.0,19.6,N/A,,Overcast,60,2013-02-07 00:55:00
7:15 PM,67.8,59.7,75,29.86,10.0,ENE,17.3,20.7,N/A,,Overcast,60,2013-02-07 01:15:00
7:35 PM,66.9,59.5,77,29.87,10.0,NE,17.3,-,N/A,,Overcast,50,2013-02-07 01:35:00
7:55 PM,66.2,59.5,79,29.88,10.0,ENE,15.0,-,N/A,,Overcast,60,2013-02-07 01:55:00
8:15 PM,66.0,59.7,80,29.88,10.0,ENE,15.0,-,N/A,,Overcast,70,2013-02-07 02:15:00
8:35 PM,65.7,59.9,82,29.89,10.0,ENE,15.0,-,N/A,,Overcast,70,2013-02-07 02:35:00
8:55 PM,65.5,60.3,83,29.90,10.0,East,13.8,18.4,N/A,,Overcast,80,2013-02-07 02:55:00
9:15 PM,65.5,60.4,84,29.90,10.0,ENE,12.7,17.3,N/A,,Overcast,70,2013-02-07 03:15:00
9:35 PM,65.3,60.3,84,29.90,10.0,ENE,15.0,-,N/A,,Overcast,70,2013-02-07 03:35:00
9:55 PM,64.6,59.5,84,29.91,10.0,ENE,12.7,-,N/A,,Overcast,70,2013-02-07 03:55:00
10:15 PM,63.9,59.4,85,29.91,7.0,ENE,9.2,-,N/A,,Overcast,70,2013-02-07 04:15:00
10:35 PM,63.7,59.4,86,29.92,7.0,ENE,9.2,-,N/A,,Overcast,70,2013-02-07 04:35:00
10:55 PM,63.7,59.4,86,29.92,7.0,ENE,11.5,-,N/A,,Overcast,70,2013-02-07 04:55:00
11:15 PM,63.5,59.2,86,29.92,7.0,ENE,9.2,-,N/A,,Overcast,70,2013-02-07 05:15:00
11:35 PM,63.5,59.2,86,29.93,5.0,ENE,11.5,-,N/A,,Overcast,70,2013-02-07 05:35:00
11:55 PM,63.3,59.2,86,29.93,5.0,ENE,8.1,-,N/A,,Overcast,70,2013-02-07 05:55:00